Temp
61 60 60 60 60 60 59 60 61 61 60 61 62 61 61 60 60 60 59 58 57 56
61 61 60 60 60 59 60 61 61 61 61 62 62 62 61 61 62 61 60 59 58 58
61 61 60 60 60 60 59 61 61 61 61 62 62 62 61 61 62 60 58 59 60 58
61 61 60 60 60 60 60 61 61 62 62 62 62 62 61 61 62 61 60 58 58 58
60 60 60 60 60 60 60 61 62 62 63 63 62 61 61 61 62 61 60 58 58 58
60 60 60 60 60 60 60 61 62 62 62 62 62 63 64 62 62 61 60 60 58 60
59 60 60 60 59 60 62 62 64 62 62 62 61 62 62 62 61 60 60 61 60 60
60 60 60 60 61 62 64 66 65 62 61 60 60 57 57 62 59 59 59 60 61 60
64 61 60 60 63 63 65 65 64 60 60 58 58 48 51 57 58 61 60 59 59 59
62 62 61 61 61 64 61 62 61 58 58 56 54 45 48 52 59 61 60 60 59 58
63 62 61 60 60 58 59 61 57 56 56 55 53 46 47 51 61 60 60 60 60 59
64 61 60 60 58 58 58 57 56 56 55 55 56 46 47 55 60 60 60 60 60 60
64 63 61 60 58 59 58 58 58 56 56 53 56 45 46 55 61 59 59 59 58 50
63 62 61 59 59 59 59 59 57 56 55 55 54 53 46 50 60 60 59 58 57 54
MSLP
1001.82 1002.30 1002.86 1003.41 1003.99 1004.55 1005.11 1005.42 1005.54 1005.75 1005.99 1006.20 1006.37 1006.49 1006.77 1007.15 1007.26 1007.31 1007.40 1007.65 1007.83 1008.07
1002.20 1002.58 1003.21 1003.74 1004.08 1004.67 1004.98 1005.25 1005.48 1005.67 1005.88 1006.03 1006.16 1006.40 1006.55 1006.60 1006.42 1006.73 1006.80 1007.12 1007.33 1007.57
1002.53 1002.97 1003.42 1003.87 1004.44 1004.82 1005.11 1005.18 1005.38 1005.68 1005.87 1005.99 1006.13 1006.22 1006.33 1006.31 1006.37 1006.35 1006.70 1006.80 1007.00 1007.22
1002.93 1003.24 1003.65 1004.15 1004.54 1004.83 1005.00 1005.18 1005.48 1005.76 1005.85 1006.04 1006.15 1006.22 1006.19 1006.19 1006.21 1006.32 1006.49 1006.73 1006.92 1007.07
1003.13 1003.45 1003.93 1004.33 1004.58 1004.78 1005.06 1005.27 1005.51 1005.65 1005.86 1006.07 1006.16 1006.20 1006.08 1006.05 1006.11 1006.20 1006.56 1006.80 1006.86 1007.06
1003.34 1003.71 1004.09 1004.42 1004.64 1004.86 1005.00 1005.28 1005.48 1005.64 1005.97 1006.17 1006.19 1006.08 1005.80 1005.82 1005.91 1006.18 1006.30 1006.60 1006.84 1007.07
1003.56 1003.89 1004.19 1004.45 1004.69 1004.90 1005.03 1005.22 1005.45 1005.73 1006.08 1006.28 1006.23 1006.19 1006.00 1005.89 1005.88 1006.10 1006.32 1006.60 1006.67 1006.98
1003.70 1004.02 1004.29 1004.57 1004.64 1004.85 1004.90 1004.98 1005.39 1005.90 1006.27 1006.45 1006.47 1006.63 1006.55 1006.12 1006.25 1006.35 1006.60 1006.81 1006.79 1006.95
1003.61 1004.05 1004.36 1004.64 1004.74 1004.82 1004.88 1005.12 1005.62 1006.15 1006.50 1006.73 1006.83 1006.87 1006.70 1006.52 1006.64 1006.61 1006.79 1006.91 1007.10 1007.25
1003.56 1003.99 1004.42 1004.73 1004.92 1004.97 1005.19 1005.42 1005.97 1006.45 1006.74 1007.04 1007.13 1007.12 1006.99 1007.01 1006.96 1006.91 1007.11 1007.26 1007.57 1007.80
1003.47 1003.91 1004.50 1004.87 1005.13 1005.33 1005.58 1005.69 1006.17 1006.69 1006.98 1007.23 1007.51 1007.39 1007.39 1007.36 1007.33 1007.37 1007.58 1007.83 1007.98 1008.30
1003.43 1003.93 1004.44 1004.90 1005.28 1005.52 1005.76 1006.10 1006.42 1006.76 1007.12 1007.34 1007.53 1007.59 1007.57 1007.63 1007.82 1007.92 1008.13 1008.43 1008.63 1008.85
1003.30 1003.75 1004.26 1004.71 1005.22 1005.48 1005.78 1006.14 1006.58 1007.02 1007.18 1007.44 1007.67 1007.84 1007.80 1007.94 1008.20 1008.45 1008.65 1009.08 1009.39 1009.68
1003.20 1003.60 1004.11 1004.67 1005.13 1005.44 1005.92 1006.38 1006.79 1007.16 1007.47 1007.67 1007.88 1008.07 1008.16 1008.27 1008.52 1008.83 1009.13 1009.60 1010.12 1010.61
Wind_Speed
8 5 5 5 5 4 3 4 4 4 4 4 4 5 3 3 3 5 5 6 5 4
7 8 6 6 5 4 3 3 5 5 4 3 4 3 3 5 5 5 4 5 5 4
7 7 7 6 6 5 5 5 5 3 2 1 0 2 5 3 4 5 3 2 4 4
6 7 6 6 6 6 5 5 4 4 3 2 1 1 3 4 4 5 4 1 3 4
6 6 6 6 6 5 6 4 4 4 3 2 2 3 3 5 4 4 4 4 4 3
6 6 6 6 6 4 6 4 3 4 4 2 3 5 3 3 5 5 2 2 4 4
6 6 6 6 5 5 5 5 4 4 4 2 3 4 4 2 2 5 4 1 3 4
6 5 5 5 4 4 4 4 6 5 5 4 3 4 5 4 5 5 4 2 3 5
7 6 6 5 3 3 5 6 6 5 5 4 3 7 2 6 4 4 4 4 5 4
6 6 6 5 3 5 6 6 6 5 5 4 4 8 8 7 4 5 5 6 6 6
6 7 6 5 5 5 4 6 6 5 5 4 3 5 7 8 5 6 7 7 7 8
6 7 7 6 6 4 5 4 4 4 5 5 3 4 8 8 5 6 7 8 6 8
7 8 7 7 6 3 4 5 4 5 3 4 4 4 7 8 4 5 6 7 7 11
6 7 6 6 4 5 6 6 5 5 3 3 3 3 7 10 4 4 5 6 6 4
Wind_Direction
118 120 118 127 130 133 146 158 170 176 179 191 208 217 194 207 224 205 205 208 201 192
115 116 130 128 120 137 131 162 170 167 166 210 236 241 211 209 202 208 203 221 213 208
119 117 120 119 134 145 161 154 148 137 173 191 346 211 205 200 219 168 179 200 197 193
128 128 129 135 143 154 144 155 149 165 163 158 200 267 221 214 167 150 166 185 175 200
129 131 132 144 152 156 163 155 157 163 158 138 227 233 206 205 180 171 171 162 161 143
136 142 152 154 159 161 145 157 171 168 137 160 252 277 242 204 195 171 150 158 158 154
157 161 164 152 157 158 168 176 149 150 124 111 32 355 337 82 133 138 159 204 140 144
154 156 153 142 149 177 190 139 131 127 101 83 48 10 341 100 92 101 110 95 120 122
144 155 153 149 151 148 122 117 123 119 109 79 48 359 62 97 100 94 84 89 83 94
150 147 151 155 146 124 123 119 116 120 110 89 51 19 91 100 94 86 80 77 81 77
160 145 142 147 127 114 117 135 132 132 120 104 53 45 110 99 83 79 73 79 87 103
159 144 149 160 164 144 130 129 138 139 138 121 77 78 128 101 81 83 80 90 79 103
165 156 163 162 162 150 140 145 133 128 148 127 115 97 139 106 105 98 90 91 82 85
161 163 161 147 142 143 125 125 131 130 121 116 103 116 153 125 117 115 105 105 108 102